Date String (YYYY-MM-DD hh:mm:ss) UTC,Instrument flags,absolute air pressure of the measurement (hPa),sample flow rate (lpm),inlet stack bypass flow (lpm),air temperature of the measurement (°C),ambient temperature measured by the external sensor (°C),aerosol sample conditioner tube jacket temperature (°C),OPC LED temperature (°C),internal box temperature (°C),relative humidity of the measurement (%),span deviation,mass concentration of particles derived from Lorenz-Mie calculation of OPC scattering (μg/m³),mass concentration of particles derived from Lorenz-Mie calculation of OPC scattering (μg/m³),mass concentration of particles derived from Lorenz-Mie calculation of OPC scattering (μg/m³)
DateTimeUTC,F1_M11,P_M11,Q1_M11,Q2_M11,T1_M11,T2_M11,T3_M11,T4_M11,T5_M11,U1_M11,ZSPAN_M11,X0_M11,X2_M11,X1_M11
2023-12-08 22:00:00,SystemResetWarning,0821.3,5.01,000.00,022.4,021.4,000.0,030.6,023.7,12.8,0000.0,0014.08,0004.02,0003.01
2023-12-08 22:01:00,SystemResetWarning,0821.3,5.01,000.00,022.4,021.4,000.0,030.6,023.7,12.8,0000.0,0013.59,0004.02,0003.00
2023-12-08 22:02:00,SystemResetWarning,0821.3,5.00,000.00,022.4,021.5,000.0,030.6,023.7,12.8,0000.0,0013.42,0004.00,0002.97
2023-12-08 22:03:00,SystemResetWarning,0821.3,4.99,000.00,022.4,021.5,000.0,030.6,023.7,12.8,0000.0,0013.50,0003.97,0002.95
2023-12-08 22:04:00,SystemResetWarning,0821.3,5.00,000.00,022.4,021.5,000.0,030.6,023.7,12.8,0000.0,0013.85,0003.89,0002.93
2023-12-08 22:05:00,SystemResetWarning,0821.5,5.02,000.00,022.4,021.5,000.0,030.6,023.7,12.8,0000.0,0014.76,0003.86,0002.89
2023-12-08 22:06:00,SystemResetWarning,0821.3,5.00,000.00,022.4,021.5,000.0,030.6,023.8,12.7,0000.0,0015.23,0003.86,0002.82
2023-12-08 22:07:00,SystemResetWarning,0821.3,4.99,000.00,022.4,021.4,000.0,030.6,023.7,12.7,0000.0,0015.48,0003.77,0002.71
2023-12-08 22:08:00,SystemResetWarning,0821.3,5.01,000.00,022.4,021.4,000.0,030.6,023.7,12.6,0000.0,0013.89,0003.70,0002.60
2023-12-08 22:09:00,SystemResetWarning,0821.3,5.01,000.00,022.4,021.4,000.0,030.6,023.7,12.6,0000.0,0013.43,0003.62,0002.51
2023-12-08 22:10:00,SystemResetWarning,0821.3,5.00,000.00,022.4,021.4,000.0,030.6,023.7,12.6,0000.0,0013.67,0003.56,0002.40
2023-12-08 22:11:00,SystemResetWarning,0821.3,4.99,000.00,022.4,021.4,000.0,030.6,023.7,12.5,0000.0,0013.54,0003.47,0002.31
2023-12-08 22:12:00,SystemResetWarning,0821.3,5.00,000.00,022.4,021.4,000.0,030.6,023.7,12.5,0000.0,0013.75,0003.44,0002.22
2023-12-08 22:13:00,SystemResetWarning,0821.3,5.01,000.00,022.4,021.4,000.0,030.6,023.7,12.4,0000.0,0013.70,0003.39,0002.14
2023-12-08 22:14:00,SystemResetWarning,0821.4,5.01,000.00,022.4,021.4,000.0,030.6,023.7,12.3,0000.0,0013.61,0003.30,0002.05
2023-12-08 22:15:00,SystemResetWarning,0821.4,4.99,000.00,022.4,021.4,000.0,030.6,023.7,12.4,0000.0,0014.80,0003.27,0001.95
2023-12-08 22:16:00,SystemResetWarning,0821.4,4.99,000.00,022.4,021.5,000.0,030.6,023.8,12.5,0000.0,0014.15,0003.24,0001.87
2023-12-08 22:17:00,SystemResetWarning,0821.4,4.99,000.00,022.4,021.5,000.0,030.6,023.7,12.5,0000.0,0013.26,0003.23,0001.85
2023-12-08 22:18:00,SystemResetWarning,0821.6,5.01,000.00,022.4,021.5,000.0,030.6,023.7,12.4,0000.0,0012.33,0003.20,0001.83
2023-12-08 22:19:00,SystemResetWarning,0821.6,5.01,000.00,022.4,021.5,000.0,030.6,023.7,12.4,0000.0,0013.10,0003.22,0001.82
2023-12-08 22:20:00,SystemResetWarning,0821.4,5.00,000.00,022.4,021.5,000.0,030.6,023.7,12.5,0000.0,0013.14,0003.25,0001.83
2023-12-08 22:21:00,SystemResetWarning,0821.8,4.98,000.00,022.4,021.5,000.0,030.6,023.8,12.6,0000.0,0013.09,0003.29,0001.85
2023-12-08 22:22:00,SystemResetWarning,0822.0,5.01,000.00,022.4,021.5,000.0,030.6,023.8,12.6,0000.0,0013.54,0003.36,0001.86
2023-12-08 22:23:00,SystemResetWarning,0822.0,5.01,000.00,022.4,021.5,000.0,030.6,023.8,12.6,0000.0,0013.03,0003.33,0001.86
2023-12-08 22:24:00,SystemResetWarning,0822.0,5.01,000.00,022.4,021.5,000.0,030.7,023.8,12.7,0000.0,0012.49,0003.32,0001.87
2023-12-08 22:25:00,SystemResetWarning,0822.0,4.98,000.00,022.4,021.5,000.0,030.7,023.8,12.6,0000.0,0012.20,0003.33,0001.87
2023-12-08 22:26:00,SystemResetWarning,0822.0,5.00,000.00,022.4,021.5,000.0,030.7,023.8,12.5,0000.0,0011.81,0003.36,0001.87
2023-12-08 22:27:00,SystemResetWarning,0822.1,5.01,000.00,022.4,021.5,000.0,030.7,023.8,12.5,0000.0,0012.30,0003.39,0001.88
2023-12-08 22:28:00,SystemResetWarning,0822.1,5.01,000.00,022.4,021.5,000.0,030.7,023.8,12.4,0000.0,0012.76,0003.41,0001.89
2023-12-08 22:29:00,SystemResetWarning,0821.6,5.00,000.00,022.4,021.5,000.0,030.7,023.8,12.4,0000.0,0013.42,0003.44,0001.90
2023-12-08 22:30:00,SystemResetWarning,0821.6,4.99,000.00,022.4,021.5,000.0,030.7,023.8,12.5,0000.0,0012.93,0003.51,0001.93
2023-12-08 22:31:00,SystemResetWarning,0821.7,4.99,000.00,022.4,021.5,000.0,030.7,023.8,13.0,0000.0,0012.93,0003.52,0001.93
2023-12-08 22:32:00,SystemResetWarning,0821.5,5.00,000.00,022.4,021.5,000.0,030.7,023.8,13.2,0000.0,0013.46,0003.50,0001.92
2023-12-08 22:33:00,SystemResetWarning,0821.5,5.01,000.00,022.4,021.4,000.0,030.7,023.8,13.3,0000.0,0013.89,0003.48,0001.92
2023-12-08 22:34:00,SystemResetWarning,0821.6,5.00,000.00,022.4,021.4,000.0,030.7,023.8,13.4,0000.0,0014.76,0003.48,0001.95
2023-12-08 22:35:00,SystemResetWarning,0821.6,4.99,000.00,022.4,021.4,000.0,030.7,023.8,13.3,0000.0,0014.95,0003.53,0001.96
2023-12-08 22:36:00,SystemResetWarning,0821.6,4.99,000.00,022.4,021.4,000.0,030.7,023.7,13.2,0000.0,0015.50,0003.59,0001.96
2023-12-08 22:37:00,SystemResetWarning,0821.6,5.00,000.00,022.4,021.4,000.0,030.7,023.8,13.2,0000.0,0015.10,0003.62,0001.98
2023-12-08 22:38:00,SystemResetWarning,0821.6,5.01,000.00,022.4,021.4,000.0,030.7,023.8,13.3,0000.0,0015.62,0003.59,0001.97
2023-12-08 22:39:00,SystemResetWarning,0821.6,5.01,000.00,022.4,021.4,000.0,030.7,023.8,13.3,0000.0,0015.08,0003.52,0001.97
2023-12-08 22:40:00,SystemResetWarning,0821.6,5.01,000.00,022.4,021.4,000.0,030.7,023.8,13.2,0000.0,0014.06,0003.51,0001.96
2023-12-08 22:41:00,SystemResetWarning,0821.7,4.99,000.00,022.4,021.4,000.0,030.7,023.8,13.1,0000.0,0013.81,0003.45,0001.95
2023-12-08 22:42:00,SystemResetWarning,0821.7,5.00,000.00,022.4,021.4,000.0,030.7,023.8,13.1,0000.0,0013.90,0003.40,0001.91
2023-12-08 22:43:00,SystemResetWarning,0821.7,5.00,000.00,022.4,021.4,000.0,030.7,023.8,13.1,0000.0,0013.96,0003.38,0001.89
2023-12-08 22:44:00,SystemResetWarning,0821.8,5.00,000.00,022.4,021.4,000.0,030.7,023.8,13.1,0000.0,0013.18,0003.31,0001.84
2023-12-08 22:45:00,SystemResetWarning,0821.8,5.00,000.00,022.4,021.4,000.0,030.7,023.8,13.1,0000.0,0011.48,0003.22,0001.76
2023-12-08 22:46:00,SystemResetWarning,0821.8,5.00,000.00,022.4,021.4,000.0,030.7,023.8,13.2,0000.0,0011.40,0003.16,0001.69
2023-12-08 22:47:00,SystemResetWarning,0821.8,5.00,000.00,022.4,021.4,000.0,030.7,023.8,13.2,0000.0,0010.61,0003.02,0001.63
2023-12-08 22:48:00,SystemResetWarning,0821.8,5.00,000.00,022.4,021.4,000.0,030.7,023.8,13.3,0000.0,0009.89,0002.78,0001.57
2023-12-08 22:49:00,SystemResetWarning,0821.8,5.00,000.00,022.4,021.4,000.0,030.7,023.8,13.3,0000.0,0008.00,0002.59,0001.50
2023-12-08 22:50:00,SystemResetWarning,0821.9,5.00,000.00,022.4,021.4,000.0,030.7,023.8,13.3,0000.0,0006.78,0002.45,0001.44
2023-12-08 22:51:00,SystemResetWarning,0821.8,4.99,000.00,022.4,021.4,000.0,030.7,023.8,13.3,0000.0,0006.44,0002.31,0001.36
2023-12-08 22:52:00,SystemResetWarning,0821.9,4.99,000.00,022.4,021.4,000.0,030.7,023.8,13.4,0000.0,0006.27,0002.16,0001.31
2023-12-08 22:53:00,SystemResetWarning,0821.9,5.00,000.00,022.4,021.4,000.0,030.7,023.8,13.4,0000.0,0006.77,0002.05,0001.26
2023-12-08 22:54:00,SystemResetWarning,0822.0,5.00,000.00,022.4,021.4,000.0,030.7,023.8,13.4,0000.0,0005.76,0001.98,0001.22
2023-12-08 22:55:00,SystemResetWarning,0821.9,5.00,000.00,022.4,021.4,000.0,030.7,023.8,13.4,0000.0,0005.42,0001.88,0001.19
2023-12-08 22:56:00,SystemResetWarning,0821.9,5.01,000.00,022.4,021.4,000.0,030.7,023.8,13.4,0000.0,0005.12,0001.81,0001.17
2023-12-08 22:57:00,SystemResetWarning,0822.0,5.01,000.00,022.4,021.4,000.0,030.7,023.8,13.5,0000.0,0005.73,0001.74,0001.15
2023-12-08 22:58:00,SystemResetWarning,0822.0,5.00,000.00,022.4,021.4,000.0,030.7,023.8,13.5,0000.0,0005.54,0001.69,0001.13
2023-12-08 22:59:00,SystemResetWarning,0822.0,4.99,000.00,022.4,021.4,000.0,030.7,023.8,13.5,0000.0,0005.42,0001.65,0001.11
